Location: Johnson City
(36.3130°N, 82.3540°W)
Time: 15:33:03
(UTC-05:00)

ISS - Visible Passes

Search period start: 23 November 2017 00:00
Search period end: 03 December 2017 00:00
Orbit: 402 x 407 km, 51.6° (Epoch: 24 November)

Date Brightness Start Highest point End Pass type
(mag) Time Alt. Az. Time Alt. Az. Time Alt. Az.
24 Nov -1.9 18:40:53 10° S 18:42:41 18° SSE 18:42:41 18° SSE visible
25 Nov -1.7 19:24:01 10° SW 19:25:37 26° WSW 19:25:37 26° WSW visible
26 Nov -3.6 18:31:46 10° SSW 18:34:58 54° SE 18:35:47 40° E visible
27 Nov -2.4 17:39:59 10° S 17:42:44 25° SE 17:45:30 10° ENE visible
27 Nov -1.9 19:16:15 10° W 19:18:31 26° NW 19:18:31 26° NW visible
28 Nov -3.3 18:23:29 10° WSW 18:26:41 52° NW 18:28:30 23° NNE visible
29 Nov -1.3 19:09:06 10° WNW 19:11:02 15° NNW 19:11:02 15° NNW visible
30 Nov -1.9 18:15:49 10° W 18:18:31 23° NNW 18:20:52 12° NNE visible
02 Dec -1.3 18:08:47 10° NW 18:10:27 13° NNW 18:12:09 10° N visible
